Weather History for Little Rock AFB, AR

Change the Weather History Date:

Monday, September 16, 2013

  Actual Average Record
Temperature  
Mean Temperature 76 °F -  
Max Temperature 91 °F 84 °F 104 °F (1980)
Min Temperature 60 °F 61 °F 46 °F (1993)
Cooling Degree Days 10    
Growing Degree Days 26 (Base 50)    
Moisture  
Dew Point 58 °F    
Average Humidity 61    
Maximum Humidity 87    
Minimum Humidity 32    
Precipitation  
Precipitation 0.00 in - - ()
Sea Level Pressure  
Sea Level Pressure 30.11 in    
Wind  
Wind Speed 4 mph (ENE)    
Max Wind Speed 14 mph    
Max Gust Speed 22 mph    
Visibility 10 miles    
Events      
Averages and records for this station are not official NWS values.
T = Trace of Precipitation, MM = Missing Value Source: NWS Daily Summary

Daily Weather History Graph

Daily Weather History Graph

Search for Another Location

Airport:

Trip Planner

Search our weather history database for the weather conditions in past years. The results will help you decide how hot, cold, wet, or windy it might be!

Date:

Astronomy

Sep. 16, 2013 Rise Set
Actual Time 6:52 AM CDT 7:13 PM CDT
Civil Twilight 6:27 AM CDT 7:38 PM CDT
Nautical Twilight 5:57 AM CDT 8:08 PM CDT
Astronomical Twilight 5:27 AM CDT 8:38 PM CDT
Moon 5:18 PM CDT (9/16) 3:44 AM CDT (9/16)
Length of Visible Light 13h 11m
Length of Day
12h 21m
Waxing Gibbous, 90% of the Moon is Illuminated
Sep 16
Waxing Gibbous
Sep 19
Full
Sep 26
Last Quarter
Oct 4
New
Oct 11
First Quarter

Hourly Weather History & Observations

Time (CDT) Temp. Heat Index Dew Point Humidity Pressure Visibility Wind Dir Wind Speed Gust Speed Precip Events Conditions
12:58 AM 61.9 °F - 56.7 °F 83% 30.09 in 10.0 mi Calm Calm - N/A   Clear
1:58 AM 60.8 °F - 56.7 °F 86% 30.09 in 10.0 mi Calm Calm - N/A   Clear
2:58 AM 61.3 °F - 56.7 °F 85% 30.08 in 10.0 mi Calm Calm - N/A   Clear
3:58 AM 60.8 °F - 56.7 °F 86% 30.08 in 10.0 mi Calm Calm - N/A   Clear
4:58 AM 60.4 °F - 56.5 °F 87% 30.07 in 10.0 mi WNW 2.3 mph - N/A   Clear
5:58 AM 60.8 °F - 55.9 °F 84% 30.09 in 10.0 mi WNW 1.2 mph - N/A   Clear
6:58 AM 60.3 °F - 55.6 °F 85% 30.12 in 10.0 mi Calm Calm - N/A   Clear
7:58 AM 63.7 °F - 57.7 °F 81% 30.14 in 10.0 mi Calm Calm - N/A   Clear
8:58 AM 72.5 °F - 56.8 °F 58% 30.15 in 10.0 mi East 4.6 mph - N/A   Clear
9:58 AM 78.3 °F - 55.9 °F 46% 30.15 in 10.0 mi NNE 6.9 mph - N/A   Clear
10:58 AM 83.3 °F 82.3 °F 54.9 °F 38% 30.15 in 10.0 mi ENE 5.8 mph - N/A   Clear
11:58 AM 86.0 °F 84.7 °F 55.9 °F 36% 30.15 in 10.0 mi East 8.1 mph - N/A   Clear
12:58 PM 88.2 °F 86.7 °F 56.3 °F 34% 30.15 in 10.0 mi East 8.1 mph - N/A   Clear
1:58 PM 90.0 °F 88.6 °F 57.4 °F 33% 30.12 in 10.0 mi ENE 5.8 mph - N/A   Clear
2:58 PM 90.1 °F 88.8 °F 57.7 °F 33% 30.10 in 10.0 mi ENE 9.2 mph - N/A   Clear
3:58 PM 91.4 °F 90.1 °F 58.1 °F 32% 30.09 in 10.0 mi NE 12.7 mph 17.3 mph N/A   Clear
4:58 PM 88.7 °F 87.3 °F 57.2 °F 34% 30.08 in 10.0 mi ENE 13.8 mph 21.9 mph N/A   Clear
5:58 PM 86.5 °F 85.6 °F 57.9 °F 38% 30.09 in 10.0 mi ENE 13.8 mph - N/A   Clear
6:58 PM 82.9 °F 82.6 °F 57.9 °F 42% 30.09 in 10.0 mi East 11.5 mph - N/A   Clear
7:58 PM 77.9 °F - 59.7 °F 53% 30.11 in 10.0 mi ENE 6.9 mph - N/A   Clear
8:58 PM 76.6 °F - 64.9 °F 67% 30.12 in 10.0 mi ENE 12.7 mph - N/A   Clear
9:58 PM 74.3 °F - 66.6 °F 77% 30.13 in 10.0 mi ENE 13.8 mph - N/A   Clear
10:58 PM 72.5 °F - 65.7 °F 79% 30.15 in 10.0 mi ENE 9.2 mph - N/A   Clear
11:58 PM 71.2 °F - 65.7 °F 82% 30.15 in 10.0 mi ENE 10.4 mph - N/A   Clear